GW3793 Weather Reports


Display with metric or nautical units.
time (UTC)temp
F
wind
direction
speed
MPH
gust
MPH
rain 1hr
in
rain 24hr
in
rain mn
in
humidity
%
barometer
mb
20260507192918 62 241 2.0 6.0 0.00 0.00 0.00 35 1016.8
20260507191803 62 10 2.0 9.0 0.00 0.00 0.00 34 1016.9
20260507190903 61 261 2.0 6.0 0.00 0.00 0.00 35 1016.9
20260507190218 60 258 2.0 6.0 0.00 0.00 0.00 34 1017.0
20260507185617 60 228 2.0 4.0 0.00 0.00 0.00 35 1017.0
20260507184504 60 332 2.0 8.0 0.00 0.00 0.00 35 1017.4
20260507183818 59 337 2.0 7.0 0.00 0.00 0.00 36 1017.1
20260507182703 59 296 1.0 4.0 0.00 0.00 0.00 35 1017.0
20260507181803 58 268 2.0 7.0 0.00 0.00 0.00 36 1017.1
20260507180903 58 249 2.0 6.0 0.00 0.00 0.00 37 1017.2
20260507180003 58 253 2.0 5.0 0.00 0.00 0.00 37 1017.5
20260507175403 58 248 2.0 4.0 0.00 0.00 0.00 38 1017.0
20260507174503 57 316 1.0 6.0 0.00 0.00 0.00 39 1017.5
20260507173603 58 350 2.0 9.0 0.00 0.00 0.00 38 1017.2
20260507172703 57 12 2.0 9.0 0.00 0.00 0.00 38 1017.5
20260507171803 56 292 2.0 11.0 0.00 0.00 0.00 39 1017.1
20260507171118 56 303 2.0 7.0 0.00 0.00 0.00 40 1017.1
20260507170003 55 15 2.0 9.0 0.00 0.00 0.00 42 1017.5
20260507165403 54 15 3.0 9.0 0.00 0.00 0.00 41 1017.2
20260507164503 54 260 2.0 6.0 0.00 0.00 0.00 41 1017.4
20260507163603 54 342 2.0 9.0 0.00 0.00 0.00 42 1017.6
20260507162703 53 294 1.0 4.0 0.00 0.00 0.00 42 1017.5
20260507161803 53 281 2.0 6.0 0.00 0.00 0.00 43 1017.5
20260507160903 53 307 1.0 4.0 0.00 0.00 0.00 42 1017.5
20260507160003 52 282 2.0 10.0 0.00 0.00 0.00 43 1017.6
20260507155403 52 291 2.0 10.0 0.00 0.00 0.00 42 1017.8
20260507154504 52 292 1.0 6.0 0.00 0.00 0.00 44 1017.7
20260507153603 51 288 2.0 8.0 0.00 0.00 0.00 43 1017.6
20260507152703 51 255 1.0 5.0 0.00 0.00 0.00 43 1017.8
20260507152017 51 298 1.0 5.0 0.00 0.00 0.00 43 1017.5
20260507151117 50 305 1.0 4.0 0.00 0.00 0.00 44 1017.8
20260507150003 49 311 1.0 4.0 0.00 0.00 0.00 45 1017.5
20260507145403 49 12 1.0 5.0 0.00 0.00 0.00 45 1017.7
20260507144717 49 280 0.0 3.0 0.00 0.00 0.00 47 1017.6
20260507143603 48 30 1.0 6.0 0.00 0.00 0.00 48 1017.5
20260507142918 47 124 1.0 4.0 0.00 0.00 0.00 49 1017.5
20260507141803 46 163 0.0 3.0 0.00 0.00 0.00 51 1017.5
20260507141116 45 68 0.0 2.0 0.00 0.00 0.00 52 1017.7
20260507140003 43 53 0.0 2.0 0.00 0.00 0.00 55 1017.5
20260507135403 42 82 0.0 2.0 0.00 0.00 0.00 56 1017.1
20260507134503 40 103 0.0 3.0 0.00 0.00 0.00 58 1017.4
20260507133604 40 287 0.0 2.0 0.00 0.00 0.00 59 1017.2
20260507132703 39 286 0.0 3.0 0.00 0.00 0.00 59 1016.9
20260507131803 39 284 1.0 2.0 0.00 0.00 0.00 60 1017.0
20260507131118 39 281 0.0 2.0 0.00 0.00 0.00 59 1017.0
20260507130003 39 285 1.0 2.0 0.00 0.00 0.00 58 1016.8
20260507125403 39 293 1.0 3.0 0.00 0.00 0.00 59 1016.7
20260507124718 38 294 1.0 3.0 0.00 0.00 0.00 60 1016.9
20260507123603 37 298 1.0 2.0 0.00 0.00 0.00 62 1016.5
20260507122705 37 356 0.0 2.0 0.00 0.00 0.00 62 1016.4
20260507121803 38 14 0.0 2.0 0.00 0.00 0.00 61 1016.8
20260507121117 38 13 0.0 2.0 0.00 0.00 0.00 62 1016.4
20260507120217 38 42 0.0 3.0 0.00 0.00 0.00 59 1016.5
20260507115403 39 44 1.0 3.0 0.00 0.00 0.00 58 1016.6
20260507114503 39 47 1.0 3.0 0.00 0.00 0.00 57 1016.5
20260507113603 39 41 1.0 3.0 0.00 0.00 0.00 58 1016.7
20260507112703 39 57 0.0 2.0 0.00 0.00 0.00 57 1016.6
20260507111803 40 137 0.0 2.0 0.00 0.00 0.00 56 1016.4
20260507110903 40 0 0.0 0.0 0.00 0.00 0.00 56 1016.5
20260507110003 40 119 0.0 2.0 0.00 0.00 0.00 55 1016.1
20260507105618 40 100 0.0 2.0 0.00 0.00 0.00 55 1016.4
20260507104717 40 0 0.0 0.0 0.00 0.00 0.00 54 1016.2
20260507103603 41 47 0.0 1.0 0.00 0.00 0.00 54 1016.0
20260507102918 41 43 0.0 1.0 0.00 0.00 0.00 53 1016.1
20260507101803 42 157 0.0 2.0 0.00 0.00 0.00 52 1016.0
20260507100903 42 109 0.0 2.0 0.00 0.00 0.00 52 1015.9
20260507100003 42 60 0.0 1.0 0.00 0.00 0.00 52 1015.6
20260507095403 42 23 0.0 1.0 0.00 0.00 0.00 53 1015.6
20260507094504 43 25 0.0 2.0 0.00 0.00 0.00 51 1015.8
20260507093603 43 25 2.0 3.0 0.00 0.00 0.00 50 1015.8
20260507092918 43 20 2.0 2.0 0.00 0.00 0.00 50 1015.6
20260507092017 43 16 1.0 3.0 0.00 0.00 0.00 49 1015.6
20260507090903 44 29 0.0 2.0 0.00 0.00 0.00 48 1015.3
20260507090004 44 7 0.0 2.0 0.00 0.00 0.00 48 1015.5
20260507085403 45 31 0.0 2.0 0.00 0.00 0.00 47 1015.1
20260507084503 46 41 0.0 2.0 0.00 0.00 0.00 45 1014.9
20260507083603 47 46 0.0 2.0 0.00 0.00 0.00 44 1014.9
20260507082703 47 147 0.0 2.0 0.00 0.00 0.00 43 1014.7
20260507082017 48 172 0.0 2.0 0.00 0.00 0.00 43 1014.6
20260507081118 48 260 1.0 2.0 0.00 0.00 0.00 43 1014.9
20260507080003 49 271 1.0 3.0 0.00 0.00 0.00 42 1014.7
20260507075617 49 285 1.0 3.0 0.00 0.00 0.00 42 1014.7
20260507074503 48 282 1.0 3.0 0.00 0.00 0.00 44 1014.7
20260507073603 47 279 1.0 2.0 0.00 0.00 0.00 46 1014.6
20260507072703 46 288 1.0 2.0 0.00 0.00 0.00 48 1014.4
20260507072016 46 292 1.0 2.0 0.00 0.00 0.00 48 1014.6
20260507070903 45 295 1.0 2.0 0.00 0.00 0.00 49 1014.4
20260507070217 45 311 1.0 2.0 0.00 0.00 0.00 50 1014.3
20260507065619 45 335 0.0 2.0 0.00 0.00 0.00 50 1014.1
20260507064504 45 11 0.0 2.0 0.00 0.00 0.00 49 1014.0
20260507063817 46 23 0.0 2.0 0.00 0.00 0.00 49 1013.7
20260507062703 46 15 0.0 2.0 0.00 0.00 0.00 49 1014.1
20260507061803 46 19 0.0 2.0 0.00 0.00 0.00 48 1013.9
20260507060903 47 14 0.0 1.0 0.00 0.00 0.00 47 1013.8
20260507060003 48 12 0.0 2.0 0.00 0.00 0.00 47 1013.5
20260507055403 48 17 1.0 2.0 0.00 0.00 0.00 46 1013.5
20260507054503 49 22 0.0 2.0 0.00 0.00 0.00 45 1013.3
20260507053603 49 19 0.0 2.0 0.00 0.00 0.00 45 1013.3
20260507052703 50 14 0.0 1.0 0.00 0.00 0.00 45 1013.1
20260507051803 50 22 0.0 2.0 0.00 0.00 0.00 44 1013.0
20260507050903 51 12 0.0 1.0 0.00 0.00 0.00 42 1013.2
20260507050218 52 27 0.0 2.0 0.00 0.00 0.00 41 1012.9
20260507045403 53 37 0.0 2.0 0.00 0.00 0.00 40 1012.8
20260507044717 53 216 0.0 2.0 0.00 0.00 0.00 40 1013.0
20260507043603 54 236 0.0 2.0 0.00 0.00 0.00 39 1012.6
20260507042703 54 258 0.0 2.0 0.00 0.00 0.00 38 1012.3
20260507041803 55 275 0.0 1.0 0.00 0.00 0.00 38 1012.2
20260507040903 57 20 0.0 2.0 0.00 0.00 0.00 36 1011.9
20260507040004 58 210 0.0 1.0 0.00 0.00 0.00 35 1011.6
20260507035403 59 213 0.0 2.0 0.00 0.00 0.00 34 1011.7
20260507034503 60 197 0.0 2.0 0.00 0.00 0.00 34 1011.5
20260507033603 60 229 1.0 3.0 0.00 0.00 0.00 35 1011.9
20260507032703 61 25 0.0 4.0 0.00 0.00 0.00 34 1011.6
20260507031803 62 274 0.0 2.0 0.00 0.00 0.00 34 1011.2
20260507030903 63 255 1.0 3.0 0.00 0.00 0.00 34 1011.5
20260507030003 63 271 1.0 3.0 0.00 0.00 0.00 33 1011.3
20260507025403 64 269 1.0 4.0 0.00 0.00 0.00 33 1011.0
20260507024503 64 296 2.0 8.0 0.00 0.00 0.00 32 1011.1
20260507023818 64 277 1.0 8.0 0.00 0.00 0.00 32 1011.2
20260507022703 65 311 1.0 9.0 0.00 0.00 0.00 32 1011.1
20260507021803 66 255 1.0 6.0 0.00 0.00 0.00 31 1011.1
20260507020903 67 283 2.0 7.0 0.00 0.00 0.00 30 1010.8
20260507020217 67 272 2.0 7.0 0.00 0.00 0.00 29 1011.0
20260507015403 67 258 2.0 7.0 0.00 0.00 0.00 29 1011.1
20260507014503 67 291 1.0 6.0 0.00 0.00 0.00 30 1010.7
20260507013603 68 291 2.0 6.0 0.00 0.00 0.00 29 1010.7
20260507012704 68 278 2.0 8.0 0.00 0.00 0.00 29 1010.7
20260507011803 68 260 1.0 6.0 0.00 0.00 0.00 31 1010.7
20260507010903 68 277 2.0 7.0 0.00 0.00 0.00 30 1010.6
20260507010003 68 297 2.0 6.0 0.00 0.00 0.00 31 1010.8
20260507005616 68 274 2.0 6.0 0.00 0.00 0.00 31 1010.7
20260507004503 69 314 2.0 10.0 0.00 0.00 0.00 31 1010.6
20260507003603 69 285 2.0 10.0 0.00 0.00 0.00 31 1010.8
20260507002703 70 294 2.0 10.0 0.00 0.00 0.00 30 1011.0
20260507001803 70 293 2.0 7.0 0.00 0.00 0.00 30 1010.8
20260507000903 70 297 2.0 7.0 0.00 0.00 0.00 31 1010.6
20260507000003 71 297 2.0 6.0 0.00 0.00 0.00 29 1010.5
20260506235403 71 310 2.0 15.0 0.00 0.00 0.00 30 1010.5
20260506234503 70 306 2.0 7.0 0.00 0.00 0.00 29 1010.5
20260506233603 71 292 2.0 5.0 0.00 0.00 0.00 29 1010.5
20260506232703 71 287 2.0 7.0 0.00 0.00 0.00 29 1010.3
20260506231803 71 287 2.0 5.0 0.00 0.00 0.00 30 1010.6
20260506230903 72 263 2.0 5.0 0.00 0.00 0.00 30 1010.7
20260506230003 71 214 2.0 9.0 0.00 0.00 0.00 30 1010.7
20260506225403 71 28 2.0 6.0 0.00 0.00 0.00 30 1010.7
20260506224503 72 285 2.0 6.0 0.00 0.00 0.00 31 1010.6
20260506223603 72 312 2.0 8.0 0.00 0.00 0.00 31 1011.0
20260506222703 71 256 1.0 4.0 0.00 0.00 0.00 32 1010.8
20260506221803 71 266 1.0 4.0 0.00 0.00 0.00 32 1010.7
20260506220903 71 252 1.0 4.0 0.00 0.00 0.00 30 1011.1
20260506220003 71 256 2.0 7.0 0.00 0.00 0.00 31 1011.1
20260506215403 71 222 2.0 7.0 0.00 0.00 0.00 32 1011.0
20260506214503 71 287 2.0 6.0 0.00 0.00 0.00 31 1011.4
20260506213603 71 315 2.0 10.0 0.00 0.00 0.00 31 1011.3
20260506212703 70 327 2.0 6.0 0.00 0.00 0.00 32 1011.6
20260506211803 70 275 1.0 6.0 0.00 0.00 0.00 34 1011.7
20260506210904 70 270 1.0 5.0 0.00 0.00 0.00 34 1012.0
20260506210003 70 269 1.0 4.0 0.00 0.00 0.00 32 1011.6
20260506205403 71 213 2.0 6.0 0.00 0.00 0.00 33 1011.6
20260506204503 71 208 2.0 6.0 0.00 0.00 0.00 33 1011.6
20260506203603 71 225 2.0 6.0 0.00 0.00 0.00 33 1011.9
20260506202703 70 310 2.0 9.0 0.00 0.00 0.00 34 1012.2
20260506201803 71 251 2.0 6.0 0.00 0.00 0.00 34 1011.9
20260506200903 71 195 3.0 8.0 0.00 0.00 0.00 33 1011.9
20260506200003 70 209 2.0 6.0 0.00 0.00 0.00 32 1012.1
20260506195403 70 216 2.0 7.0 0.00 0.00 0.00 33 1012.3
20260506194503 69 256 2.0 6.0 0.00 0.00 0.00 35 1012.2
20260506193603 70 285 2.0 5.0 0.00 0.00 0.00 34 1012.4